Weather in Poselok Timiryazeva

Russia / Republic of Adygea     44°28′11″N   40°10′07″E
temp.,
°C
wind,
m/s
gust,
m/s
humid.,
%
clouds,
%
prec.,
mm/h
press.,
hPa
HPBL,
m
17 april, sat
sat1700:00+9wnw119991 0.1 101924
03:00+9w1199100 1.2 102040
06:00+9nw2798100 3.6 1021485
09:00+7nw2498100 7.8 1022260
12:00+7nne1297100 0.6 1023241
15:00+8e1295100 0.9 1023241
18:00+8e1496100 0.6 1022190
21:00+7e2496100 1.5 1022137
18 april, sun
sun1800:00+7ese1195100 0.0 102024
03:00+8e1194100 0.0 101915
06:00+8sse1195100 0.3 101818
09:00+9e1197100 1.9 101788
12:00+12nnw1090100 0.3 1017305
15:00+14nne2286100 1.4 1017677
18:00+13e159552 1.5 1017332
21:00+11se2497100 2.0 101686
19 april, mon
mon1900:00+11sse2294100 0.0 101621
03:00+11s1191100 0.0 101612
06:00+11nnw0092100 0.4 101610
09:00+12e229699 1.5 101664
12:00+14nnw1192100 0.3 101595
15:00+18ene237596 0.4 1013528
18:00+16e2891100 0.4 1012285
21:00+13se1196100 0.6 101116
20 april, tue
tue2000:00+14se2390100 0.0 100743
03:00+12se3485100 0.0 100456
06:00+13sse3480100 0.0 100051
09:00+21nw2362100 0.0 1001187
12:00+25wsw4144499 0.0 10032105
15:00+17w7115326 0.0 1008952
18:00+11wsw6147899 0.6 1011704
21:00+10sw25817 0.8 1014289
21 april, wed
wed2100:00+8sw24885 0.0 1016127
03:00+7sse22915 0.0 101844
06:00+7e119254 0.0 101920
09:00+13ne227358 0.0 1019726
12:00+11ene3380100 0.2 1020497
15:00+10ese2687100 0.3 1020316
18:00+11ese378297 0.0 1020402
21:00+7ese249469 0.0 102188